Weather History for Park Rapids, MN

Change the Weather History Date:

Saturday, June 30, 2012

  Actual Average Record
Temperature  
Mean Temperature 68 °F -  
Max Temperature 82 °F 78 °F 93 °F (1961)
Min Temperature 55 °F 53 °F 39 °F (1959)
Cooling Degree Days 4    
Growing Degree Days 18 (Base 50)    
Moisture  
Dew Point 57 °F    
Average Humidity 64    
Maximum Humidity 96    
Minimum Humidity 38    
Precipitation  
Precipitation 0.03 in - - ()
Sea Level Pressure  
Sea Level Pressure 29.88 in    
Wind  
Wind Speed 3 mph (WSW)    
Max Wind Speed 8 mph    
Max Gust Speed -    
Visibility 10 miles    
Events      
Averages and records for this station are not official NWS values.
T = Trace of Precipitation, MM = Missing Value Source: NWS Daily Summary

Daily Weather History Graph

Daily Weather History Graph

Search for Another Location

Airport:

Trip Planner

Search our weather history database for the weather conditions in past years. The results will help you decide how hot, cold, wet, or windy it might be!

Date:

Astronomy

Jun. 30, 2012 Rise Set
Actual Time 5:29 AM CDT 9:18 PM CDT
Civil Twilight 4:49 AM CDT 9:57 PM CDT
Nautical Twilight 3:56 AM CDT 10:51 PM CDT
Astronomical Twilight 2:37 AM CDT 12:09 AM CDT
Moon 6:12 PM CDT (6/30) 2:30 AM CDT (6/30)
Length of Visible Light 17h 08m
Length of Day
15h 49m
Waxing Gibbous, 87% of the Moon is Illuminated
Jun 30
Waxing Gibbous
Jul 3
Full
Jul 10
Last Quarter
Jul 18
New
Jul 26
First Quarter

Hourly Weather History & Observations

Time (CDT) Temp. Heat Index Dew Point Humidity Pressure Visibility Wind Dir Wind Speed Gust Speed Precip Events Conditions
12:53 AM 59.0 °F - 55.9 °F 90% 29.85 in 10.0 mi West 3.5 mph - N/A   Clear
1:53 AM 57.0 °F - 54.0 °F 89% 29.86 in 10.0 mi West 4.6 mph - N/A   Clear
2:53 AM 55.9 °F - 54.0 °F 93% 29.84 in 10.0 mi WNW 4.6 mph - N/A   Clear
3:53 AM 55.0 °F - 54.0 °F 96% 29.84 in 10.0 mi Calm Calm - N/A   Clear
4:53 AM 55.9 °F - 53.1 °F 90% 29.86 in 10.0 mi Calm Calm - N/A   Clear
6:53 AM 59.0 °F - 55.0 °F 87% 29.90 in 10.0 mi Calm Calm - N/A   Clear
7:53 AM 66.9 °F - 57.0 °F 70% 29.89 in 10.0 mi Calm Calm - N/A   Clear
8:53 AM 71.1 °F - 59.0 °F 66% 29.90 in 10.0 mi Calm Calm - N/A   Clear
9:53 AM 75.9 °F - 54.0 °F 46% 29.89 in 10.0 mi NW 4.6 mph - N/A   Clear
10:53 AM 75.0 °F - 55.0 °F 50% 29.90 in 10.0 mi Calm Calm - N/A   Clear
11:53 AM 75.0 °F - 57.0 °F 53% 29.91 in 10.0 mi NW 4.6 mph - N/A   Clear
12:53 PM 78.1 °F - 55.9 °F 46% 29.89 in 10.0 mi Variable 4.6 mph - N/A   Clear
1:53 PM 78.1 °F - 55.0 °F 45% 29.88 in 10.0 mi Variable 4.6 mph - N/A   Clear
2:53 PM 80.1 °F 80.0 °F 54.0 °F 40% 29.87 in 10.0 mi SSE 8.1 mph - N/A   Clear
3:53 PM 82.0 °F 81.3 °F 54.0 °F 38% 29.87 in 10.0 mi SW 5.8 mph - N/A   Clear
4:53 PM 82.0 °F 81.6 °F 55.9 °F 41% 29.87 in 10.0 mi West 4.6 mph - N/A   Scattered Clouds
5:53 PM 81.0 °F 81.0 °F 57.0 °F 44% 29.87 in 10.0 mi WSW 4.6 mph - N/A   Mostly Cloudy
6:53 PM 80.6 °F 80.8 °F 57.2 °F 45% 29.87 in 10.0 mi SW 3.5 mph - N/A   Clear
7:53 PM 79.0 °F - 59.0 °F 50% 29.86 in 10.0 mi Calm Calm - N/A   Mostly Cloudy
8:53 PM 75.9 °F - 64.0 °F 67% 29.86 in 10.0 mi South 3.5 mph - N/A   Mostly Cloudy
9:53 PM 72.0 °F - 63.0 °F 73% 29.88 in 10.0 mi West 6.9 mph - N/A   Overcast
10:53 PM 72.0 °F - 64.9 °F 78% 29.89 in 10.0 mi Calm Calm - 0.03 in   Mostly Cloudy
11:53 PM 70.0 °F - 64.9 °F 84% 29.88 in 10.0 mi SE 3.5 mph - N/A   Partly Cloudy